Showing default

GLOBALSTAR M048, 25872

Orbit data source: Space-Track

GLOBALSTAR M048, 25872 is a payload satellite owned by Globalstar (US) in LEO that was launched on Sun, 25 Jul 1999 UTC via a DELTA 7420-10C launch vehicle from the Air Force Eastern Test Range (AFETR). Payload-class satellites include a variety of spacecraft equipped with specific instruments for various scientific and technological missions. These include communications satellites like Starlink; space stations such as the ISS; scientific satellites like the Hubble; Earth observation satellites from companies like Planet Labs, Umbra, and HawkEye 360; GPS; miniature CubeSats for education and research; and military/defense satellites.

Loading next visibility...
Identifier
25872, 1999-041A
Orbit
LEO
Country
Flag of UnknownUnknown / GLOB
Related business
Manufacturer
SS/Loral
Mission
Non-operational Commercial Communications
Bus & Motor
LS-400, LS-400 AOCS
Mass
450 kg wet, 380 kg dry
Launch date (UTC)
1999-07-25 (27 years ago)
Launch vehicle
DELTA 7420-10C
Launch site
Air Force Eastern Test Range (AFETR)
Object type
Payload
Rocket body
Debris
Shape & HBR
Box + 2 Pan, 6.0 m
Radar Cross Section
5.587 m², Large (>1 m²)

Expand to show TLE details & history
Last TLE update: 22 hours ago

TLE from 22 hours ago
0 GLOBALSTAR M048
1 25872U 99041A   26035.59542706 -.00000063  00000-0  20141-3 0  9992
2 25872  51.9358 144.2522 0013062 222.8940 236.9818 11.33861922151343
Epoch: 2026-02-04T14:17Z
TLE epoch observation values (Epoch: 2026-02-04T14:17:24.897Z)
Latitude
51.01894°
Longitude
-99.27217°
Altitude
2,003.378 km
Speed
6.9 km/s
True Right ascension
16h 39m 21s
True Declination
50° 52' 33"
Sunlit
Object was in daylight at epoch
Visualization orbit readout
Latitude
Unknown
Longitude
Unknown
Altitude
Unknown
Speed
Unknown
Apparent Right ascension
Unknown
Apparent Declination
Unknown
Sunlit
N/A
Visualization observer readout
Local Sidereal Time
13:50:53
Azimuth
Unknown
Elevation
Unknown
Doppler factor
Unknown
Orbital elements
Apogee altitude
2,002.584 km
Perigee altitude
1,980.719 km
Semi-major axis
8,369.789 km
Eccentricity
0.00131
Inclination
51.9358°
RAAN
144.2522°
Arg. of periapsis
222.894°
True anomaly
236.85641°
Mean anomaly
236.9818°
Eccentric anomaly
236.91909°
Mean motion
2.83447 °/min
Orbital period
127.01 mins
BSTAR
0.00020141
Loading maneuver chart data...
Computing Atmospheric mass density...
Loading historical data...
Loading historical data...
Loading historical data...
Loading historical data...
Loading historical data...
Loading historical data...
Loading historical data...
Other satellites on launch #41 in the year 1999 (1999-07-25 UTC)

Documentation

Showing up to 5 results
|